sat.trackr.live / text

‹ back to catalog

STARLINK-34034

NORAD 63947 · 2025-098X

PAYLOAD ACTIVE UNKNOWN

§ Identity

Operator
Country
US
Launch date
2025-05-13
Launch site
AFWTR
Launch vehicle
Mass (kg)
RCS (m²)

Purposes: comms

External: N2YO · Heavens-Above · Gunter

§ Orbital elements

Epoch: 2026-09-20T22:39:32.454432Z

Period
94.14 min
Inclination
69.9999°
Eccentricity
0.0003063
Mean motion
15.29581607 rev/d
Perigee alt
475.0 km
Apogee alt
479.2 km
Semi-major
6,855.2 km
B*
1.5264e-4
RAAN
139.6044°
Arg perigee
269.0262°
Mean anomaly
91.0562°
Rev number
7,586

§ Raw data

STARLINK-340341 63947U 25098X   26263.94412563  .00004263  00000+0  15264-3 0  99912 63947  69.9999 139.6044 0003063 269.0262  91.0562 15.29581607 75861

JSON: /api/v1/satellites/63947 · /tle

For live sub-satellite position, see the globe view (requires WebGL).

§ Visibility from observer

Set your observer location to see the next 7 days of passes ≥ 10°. The values pass through the URL so the page stays shareable.

No JS? Fill the form by hand. The geolocation button needs JavaScript.